�������l�o���
Date,Time,MP-1(��Sv/h),MP-2(��Sv/h),MP-3(��Sv/h),MP-4(��Sv/h),MP-5(��Sv/h),MP-6(��Sv/h),MP-7(��Sv/h),MP-8(��Sv/h),����,����(m/s),���J
2017/02/25,00:00,1.050,1.764,1.173,2.046,1.425,0.554,1.019,0.947,�k��,7.9,��
2017/02/25,00:10,1.049,1.763,1.176,2.048,1.424,0.555,1.021,0.948,�k��,5.9,��
2017/02/25,00:20,1.049,1.764,1.174,2.048,1.422,0.556,1.020,0.946,�k��,4.4,��
2017/02/25,00:30,1.049,1.764,1.174,2.048,1.425,0.554,1.020,0.946,�k�k��,3.3,��
2017/02/25,00:40,1.051,1.761,1.171,2.049,1.427,0.555,1.019,0.946,�k,2.6,��
2017/02/25,00:50,1.048,1.762,1.174,2.049,1.424,0.555,1.020,0.947,�k��,1.5,��
2017/02/25,01:00,1.048,1.763,1.172,2.047,1.424,0.554,1.017,0.946,�k,0.6,��
2017/02/25,01:10,1.047,1.760,1.172,2.047,1.425,0.554,1.018,0.946,�k,1.1,��
2017/02/25,01:20,1.049,1.765,1.173,2.047,1.423,0.557,1.019,0.947,�k�k��,2.3,��
2017/02/25,01:30,1.046,1.761,1.173,2.046,1.423,0.555,1.020,0.946,�k��,1.5,��
2017/02/25,01:40,1.047,1.761,1.172,2.045,1.425,0.554,1.018,0.944,�k�k��,2.6,��
2017/02/25,01:50,1.046,1.760,1.171,2.046,1.421,0.555,1.019,0.947,�k,1.2,��
2017/02/25,02:00,1.046,1.764,1.171,2.047,1.424,0.554,1.017,0.946,�k��,1.2,��
2017/02/25,02:10,1.047,1.761,1.173,2.046,1.426,0.553,1.020,0.946,��,0.9,��
2017/02/25,02:20,1.045,1.760,1.172,2.046,1.424,0.554,1.019,0.947,��,2.5,��
2017/02/25,02:30,1.048,1.757,1.173,2.043,1.422,0.553,1.019,0.946,��쐼,2.6,��
2017/02/25,02:40,1.047,1.762,1.171,2.047,1.425,0.554,1.019,0.946,��쐼,2.6,��
2017/02/25,02:50,1.047,1.761,1.173,2.047,1.422,0.556,1.019,0.947,��쐼,1.9,��
2017/02/25,03:00,1.047,1.762,1.171,2.045,1.424,0.555,1.019,0.946,��,1.4,��
2017/02/25,03:10,1.045,1.758,1.172,2.046,1.426,0.555,1.017,0.945,-,CALM,��
2017/02/25,03:20,1.047,1.761,1.171,2.045,1.425,0.553,1.021,0.945,�k�k��,1.5,��
2017/02/25,03:30,1.046,1.760,1.171,2.048,1.424,0.555,1.019,0.948,���k��,1.2,��
2017/02/25,03:40,1.048,1.763,1.172,2.044,1.420,0.553,1.020,0.945,�k��,0.9,��
2017/02/25,03:50,1.048,1.761,1.172,2.047,1.419,0.553,1.018,0.945,���k��,0.8,��
2017/02/25,04:00,1.046,1.757,1.171,2.047,1.423,0.555,1.019,0.946,���k��,2.0,��
2017/02/25,04:10,1.047,1.760,1.171,2.046,1.423,0.553,1.018,0.945,���k��,0.6,��
2017/02/25,04:20,1.045,1.761,1.172,2.046,1.424,0.552,1.020,0.945,���k��,1.2,��
2017/02/25,04:30,1.048,1.762,1.169,2.045,1.422,0.554,1.018,0.945,���k��,0.6,��
2017/02/25,04:40,1.047,1.762,1.170,2.046,1.425,0.552,1.018,0.946,���k��,1.4,��
2017/02/25,04:50,1.047,1.759,1.170,2.043,1.423,0.553,1.019,0.945,���k��,1.9,��
2017/02/25,05:00,1.047,1.758,1.170,2.047,1.422,0.554,1.019,0.946,���k��,2.9,��
2017/02/25,05:10,1.046,1.759,1.168,2.046,1.423,0.552,1.019,0.946,�k��,4.3,��
2017/02/25,05:20,1.047,1.759,1.172,2.042,1.423,0.554,1.017,0.947,���k��,4.0,��
2017/02/25,05:30,1.048,1.761,1.169,2.046,1.421,0.555,1.019,0.945,���k��,4.7,��
2017/02/25,05:40,1.047,1.759,1.168,2.047,1.422,0.553,1.018,0.948,��,4.8,��
2017/02/25,05:50,1.048,1.759,1.171,2.048,1.419,0.553,1.018,0.946,���k��,5.5,��
2017/02/25,06:00,1.045,1.762,1.172,2.047,1.421,0.554,1.018,0.945,��,5.1,��
2017/02/25,06:10,1.046,1.763,1.173,2.042,1.421,0.555,1.018,0.945,��,4.5,��
2017/02/25,06:20,1.047,1.761,1.171,2.048,1.422,0.553,1.020,0.947,���k��,5.3,��
2017/02/25,06:30,1.047,1.763,1.169,2.047,1.421,0.554,1.017,0.945,���k��,5.3,��
2017/02/25,06:40,1.047,1.762,1.171,2.046,1.421,0.554,1.016,0.946,���k��,3.9,��
2017/02/25,06:50,1.048,1.761,1.171,2.045,1.422,0.553,1.019,0.945,���k��,4.7,��
2017/02/25,07:00,1.049,1.761,1.171,2.044,1.423,0.553,1.018,0.945,��,6.6,��
2017/02/25,07:10,1.048,1.760,1.172,2.046,1.421,0.554,1.018,0.946,��,7.7,��
2017/02/25,07:20,1.050,1.763,1.171,2.049,1.423,0.555,1.020,0.945,��,8.6,��
2017/02/25,07:30,1.050,1.763,1.174,2.048,1.421,0.554,1.018,0.946,��,8.5,��
2017/02/25,07:40,1.052,1.760,1.174,2.048,1.422,0.555,1.018,0.946,��,7.2,��
2017/02/25,07:50,1.052,1.764,1.176,2.050,1.424,0.555,1.021,0.946,���k��,6.4,��
2017/02/25,08:00,1.051,1.764,1.174,2.051,1.426,0.553,1.019,0.947,��,2.5,��
2017/02/25,08:10,1.051,1.765,1.176,2.051,1.426,0.556,1.020,0.947,��,4.2,��
2017/02/25,08:20,1.051,1.766,1.176,2.049,1.426,0.555,1.021,0.947,��쓌,4.0,��
2017/02/25,08:30,1.053,1.763,1.174,2.053,1.425,0.555,1.022,0.947,��,2.3,��
2017/02/25,08:40,1.052,1.767,1.177,2.051,1.426,0.555,1.023,0.947,���쐼,2.3,��
2017/02/25,08:50,1.054,1.766,1.176,2.052,1.426,0.555,1.024,0.948,���k��,5.6,��
2017/02/25,09:00,1.053,1.767,1.177,2.050,1.427,0.557,1.024,0.947,���k��,4.6,��
2017/02/25,09:10,1.054,1.764,1.176,2.050,1.427,0.555,1.023,0.949,���k��,4.5,��
2017/02/25,09:20,1.056,1.769,1.176,2.052,1.430,0.557,1.021,0.949,���k��,5.0,��
2017/02/25,09:30,1.055,1.766,1.179,2.049,1.430,0.557,1.021,0.949,��,4.3,��
2017/02/25,09:40,1.054,1.767,1.179,2.053,1.428,0.556,1.022,0.949,���쐼,3.3,��
2017/02/25,09:50,1.057,1.767,1.178,2.055,1.428,0.557,1.022,0.949,��쓌,3.5,��
2017/02/25,10:00,1.053,1.766,1.180,2.051,1.428,0.556,1.022,0.950,��쓌,3.6,��
2017/02/25,10:10,1.055,1.765,1.179,2.055,1.429,0.556,1.019,0.949,���쓌,1.9,��
2017/02/25,10:20,1.054,1.768,1.177,2.056,1.427,0.556,1.021,0.948,���쐼,4.4,��
2017/02/25,10:30,1.057,1.769,1.182,2.052,1.428,0.556,1.022,0.949,��,5.1,��
2017/02/25,10:40,1.057,1.764,1.181,2.059,1.433,0.560,1.022,0.950,��,6.8,��
2017/02/25,10:50,1.056,1.769,1.180,2.055,1.430,0.559,1.020,0.950,��,7.6,��
2017/02/25,11:00,1.059,1.767,1.180,2.055,1.429,0.558,1.022,0.952,���k��,8.2,��
2017/02/25,11:10,1.059,1.769,1.180,2.054,1.428,0.557,1.022,0.951,���k��,8.9,��
2017/02/25,11:20,1.059,1.769,1.179,2.058,1.433,0.558,1.022,0.950,���쐼,5.5,��
2017/02/25,11:30,1.059,1.770,1.181,2.058,1.431,0.558,1.022,0.952,��,6.7,��
2017/02/25,11:40,1.057,1.769,1.178,2.060,1.431,0.558,1.022,0.950,���k��,8.4,��
2017/02/25,11:50,1.060,1.769,1.184,2.059,1.435,0.558,1.022,0.951,���쐼,8.4,��
2017/02/25,12:00,1.058,1.770,1.182,2.058,1.431,0.559,1.022,0.951,��,8.9,��
2017/02/25,12:10,1.059,1.772,1.179,2.061,1.431,0.559,1.024,0.950,���k��,8.5,��
2017/02/25,12:20,1.059,1.771,1.177,2.058,1.432,0.560,1.023,0.950,���k��,10.4,��
2017/02/25,12:30,1.058,1.769,1.175,2.057,1.431,0.560,1.024,0.951,���k��,8.3,��
2017/02/25,12:40,1.059,1.771,1.173,2.060,1.433,0.560,1.022,0.950,���k��,9.2,��
2017/02/25,12:50,1.060,1.770,1.175,2.061,1.432,0.559,1.025,0.951,���k��,8.2,��
2017/02/25,13:00,1.057,1.773,1.184,2.058,1.432,0.559,1.023,0.951,���k��,9.3,��
2017/02/25,13:10,1.059,1.772,1.184,2.062,1.434,0.560,1.022,0.950,��,7.4,��
2017/02/25,13:20,1.060,1.773,1.182,2.059,1.432,0.560,1.023,0.952,���k��,9.0,��
2017/02/25,13:30,1.057,1.775,1.182,2.059,1.433,0.561,1.024,0.948,��,6.8,��
2017/02/25,13:40,1.059,1.772,1.183,2.061,1.436,0.559,1.023,0.950,���쐼,3.1,��
2017/02/25,13:50,1.061,1.770,1.184,2.061,1.434,0.561,1.023,0.949,���쐼,2.3,��
2017/02/25,14:00,1.059,1.769,1.185,2.065,1.432,0.559,1.020,0.950,�쓌,2.2,��
2017/02/25,14:10,1.059,1.771,1.186,2.063,1.431,0.561,1.022,0.950,��쓌,3.0,��
2017/02/25,14:20,1.060,1.776,1.183,2.061,1.433,0.560,1.019,0.951,�쓌,2.3,��
2017/02/25,14:30,1.061,1.775,1.183,2.060,1.433,0.559,1.023,0.950,��쓌,3.0,��
2017/02/25,14:40,1.061,1.775,1.184,2.063,1.435,0.560,1.022,0.950,��쓌,3.8,��
2017/02/25,14:50,1.061,1.773,1.184,2.057,1.434,0.559,1.023,0.951,��쓌,4.0,��
2017/02/25,15:00,1.058,1.775,1.186,2.059,1.438,0.560,1.022,0.951,��쓌,4.2,��
2017/02/25,15:10,1.061,1.775,1.185,2.058,1.435,0.557,1.023,0.951,��쓌,4.0,��
2017/02/25,15:20,1.062,1.776,1.186,2.061,1.438,0.560,1.022,0.952,��쓌,3.9,��
2017/02/25,15:30,1.061,1.778,1.185,2.059,1.438,0.560,1.022,0.951,��쓌,3.8,��
2017/02/25,15:40,1.059,1.777,1.185,2.059,1.438,0.559,1.022,0.950,��쓌,3.7,��
2017/02/25,15:50,1.058,1.774,1.183,2.059,1.436,0.559,1.021,0.950,��쓌,3.9,��
2017/02/25,16:00,1.060,1.775,1.183,2.060,1.436,0.559,1.025,0.951,��,3.6,��
2017/02/25,16:10,1.060,1.776,1.184,2.059,1.434,0.559,1.022,0.951,��,2.0,��
2017/02/25,16:20,1.060,1.776,1.182,2.061,1.436,0.561,1.026,0.949,��,6.0,��
2017/02/25,16:30,1.063,1.775,1.183,2.060,1.436,0.559,1.022,0.952,��,4.4,��
2017/02/25,16:40,1.062,1.778,1.184,2.059,1.434,0.560,1.024,0.948,�쐼,2.3,��
2017/02/25,16:50,1.060,1.775,1.185,2.058,1.439,0.558,1.023,0.951,���쐼,3.3,��
2017/02/25,17:00,1.060,1.773,1.185,2.061,1.435,0.559,1.025,0.949,���쐼,3.3,��
2017/02/25,17:10,1.060,1.775,1.185,2.058,1.438,0.561,1.024,0.949,�쐼,4.0,��
2017/02/25,17:20,1.060,1.777,1.179,2.060,1.436,0.558,1.023,0.950,���쐼,3.6,��
2017/02/25,17:30,1.060,1.775,1.183,2.057,1.436,0.560,1.022,0.951,�쐼,3.3,��
2017/02/25,17:40,1.058,1.776,1.184,2.060,1.436,0.558,1.026,0.950,���쐼,3.5,��
2017/02/25,17:50,1.058,1.774,1.184,2.061,1.435,0.559,1.026,0.950,�쐼,3.8,��
2017/02/25,18:00,1.059,1.775,1.183,2.059,1.436,0.558,1.024,0.951,�쐼,4.6,��
2017/02/25,18:10,1.060,1.774,1.184,2.058,1.436,0.558,1.024,0.948,���쐼,4.9,��
2017/02/25,18:20,1.059,1.773,1.182,2.058,1.434,0.558,1.024,0.949,���쐼,4.2,��
2017/02/25,18:30,1.059,1.776,1.182,2.059,1.433,0.559,1.025,0.949,�쐼,3.7,��
2017/02/25,18:40,1.060,1.775,1.182,2.059,1.438,0.558,1.022,0.949,�쐼,3.1,��
2017/02/25,18:50,1.058,1.774,1.182,2.056,1.434,0.557,1.023,0.951,���쐼,3.2,��
2017/02/25,19:00,1.058,1.774,1.180,2.059,1.435,0.559,1.024,0.949,���쐼,3.9,��
2017/02/25,19:10,1.058,1.775,1.181,2.058,1.436,0.558,1.023,0.950,���쐼,3.6,��
2017/02/25,19:20,1.058,1.773,1.183,2.059,1.434,0.558,1.022,0.949,���쐼,3.4,��
2017/02/25,19:30,1.060,1.774,1.179,2.057,1.432,0.557,1.023,0.949,���쐼,3.4,��
2017/02/25,19:40,1.059,1.772,1.180,2.061,1.435,0.559,1.023,0.947,���쐼,3.2,��
2017/02/25,19:50,1.056,1.774,1.180,2.054,1.433,0.557,1.022,0.949,���쐼,2.6,��
2017/02/25,20:00,1.057,1.774,1.179,2.057,1.435,0.558,1.023,0.948,�쐼,2.2,��
2017/02/25,20:10,1.057,1.773,1.181,2.058,1.435,0.557,1.024,0.947,��쐼,2.6,��
2017/02/25,20:20,1.057,1.771,1.181,2.057,1.434,0.558,1.022,0.947,�쐼,2.2,��
2017/02/25,20:30,1.058,1.774,1.180,2.056,1.434,0.557,1.020,0.947,�쐼,2.3,��
2017/02/25,20:40,1.055,1.771,1.180,2.059,1.435,0.558,1.021,0.947,�쐼,2.6,��
2017/02/25,20:50,1.056,1.772,1.180,2.052,1.434,0.560,1.021,0.950,��쐼,3.2,��
2017/02/25,21:00,1.057,1.774,1.178,2.058,1.435,0.557,1.023,0.949,��쐼,4.0,��
2017/02/25,21:10,1.058,1.772,1.177,2.057,1.433,0.556,1.023,0.948,�쐼,4.6,��
2017/02/25,21:20,1.055,1.772,1.181,2.055,1.434,0.556,1.022,0.950,��쐼,4.6,��
2017/02/25,21:30,1.057,1.773,1.180,2.057,1.433,0.556,1.022,0.947,��쐼,4.9,��
2017/02/25,21:40,1.056,1.771,1.179,2.058,1.434,0.559,1.023,0.949,��쐼,4.6,��
2017/02/25,21:50,1.058,1.771,1.180,2.054,1.431,0.559,1.021,0.948,���쐼,2.6,��
2017/02/25,22:00,1.055,1.773,1.181,2.054,1.432,0.557,1.022,0.947,���쐼,3.0,��
2017/02/25,22:10,1.056,1.770,1.177,2.056,1.434,0.558,1.023,0.946,���쐼,3.3,��
2017/02/25,22:20,1.059,1.770,1.178,2.055,1.434,0.556,1.022,0.948,���쐼,4.4,��
2017/02/25,22:30,1.057,1.770,1.176,2.055,1.430,0.556,1.024,0.948,���쐼,3.1,��
2017/02/25,22:40,1.056,1.771,1.180,2.058,1.434,0.558,1.020,0.948,�쐼,2.2,��
2017/02/25,22:50,1.057,1.772,1.181,2.054,1.432,0.557,1.021,0.951,�쐼,2.9,��
2017/02/25,23:00,1.056,1.771,1.178,2.055,1.434,0.557,1.023,0.949,�쐼,3.0,��
2017/02/25,23:10,1.055,1.773,1.177,2.057,1.433,0.556,1.022,0.950,��쐼,4.1,��
2017/02/25,23:20,1.056,1.772,1.179,2.055,1.434,0.556,1.020,0.948,�쐼,5.2,��
2017/02/25,23:30,1.058,1.774,1.180,2.054,1.433,0.558,1.023,0.948,��쐼,3.7,��
2017/02/25,23:40,1.060,1.772,1.178,2.055,1.434,0.556,1.023,0.949,��쐼,4.5,��
2017/02/25,23:50,1.057,1.772,1.180,2.057,1.433,0.557,1.023,0.947,��쐼,4.6,��
